Regional Weather Roundup
Issued by NWS

Home | Current Version | Previous Version | Graphics & Text | Print | Product List | Glossary On
Versions: 1 2 3 4 5 6 7 8 9 10 11 12 13 14 15 16 17 18 19 20 21 22 23 24 25 26 27 28 29 30 31 32 33 34 35 36 37 38 39 40 41 42 43 44 45 46 47 48 49 50
265
ASUS44 KLIX 171305
RWRLA
LOUISIANA WEATHER ROUNDUP
NATIONAL WEATHER SERVICE NEW ORLEANS LA
800 AM CDT THU APR 17 2014

NOTE: "FAIR" INDICATES FEW OR NO CLOUDS BELOW 12,000 FEET WITH NO
      SIGNIFICANT WEATHER AND/OR OBSTRUCTIONS TO VISIBILITY.
      SKY/WX - SKY CONDITION AND SIGNIFICANT WEATHER.
      TMP - AIR TEMPERATURE.    DP   - DEWPOINT TEMPERATURE.
      RH  - RELATIVE HUMIDITY.  PRES - PRESSURE.
      HX  - HEAT INDEX.         WCI  - WIND CHILL INDEX.

*  THESE STATIONS ARE NOT NWS OR FAA STATIONS AND ARE NOT UNDER
   NWS QUALITY CONTROL.

LAZ040-048-061>063-065-066-069-171400-
SOUTHEAST LOUISIANA

CITY           SKY/WX    TMP DP  RH WIND       PRES   REMARKS
N.O. AUDUBON     N/A     59 N/A N/A MISG        N/A
N.O. INTL ARPT PTSUNNY   59  55  87 NE9       30.18R
N.O. LAKEFRONT CLOUDY    59  54  83 NE14      30.19R
N.O. DOWNTOWN* CLOUDY    57  50  77 NE5       30.18R
SLIDELL        CLOUDY    55  49  80 NE5       30.18R
BATON ROUGE    PTSUNNY   53  47  79 NE7       30.19R
BOOTHVILLE     SUNNY     59  56  89 VRB3      30.16R
BELLE CHASSE   CLOUDY    60  54  80 N5        30.17R
BOGALUSA*        N/A     53  49  86 N3        30.22R
GALLIANO*      CLOUDY    64  55  72 NE6       30.15R
NEW ROADS*     CLOUDY    53  48  83 NE5       30.19R
GONZALES*      PTSUNNY   54  50  89 N7        30.18R
HAMMOND*       CLOUDY    54  46  76 NE5       30.21R
HOUMA*         PTSUNNY   61  52  72 NE9       30.14S
PORT FOURCHON* CLOUDY    66  55  68 E8        30.15R

$$

LAZ041-044-053-054-171400-
SOUTHWEST LOUISIANA

CITY           SKY/WX    TMP DP  RH WIND       PRES   REMARKS
LAKE CHARLES   CLOUDY    54  49  83 NE13      30.13S
LAFAYETTE      CLOUDY    52  50  93 NE5       30.17R
PATTERSON      CLOUDY    57  50  77 NE10        N/A
SALT POINT       N/A     59  52  77 VRB5      30.14R
NEW IBERIA     CLOUDY    55  49  80 NE7       30.17R
CHENAULT AIRPK NOT AVBL

$$

LAZ027-028-171400-
CENTRAL LOUISIANA

CITY           SKY/WX    TMP DP  RH WIND       PRES   REMARKS
FORT POLK      CLOUDY    51  47  86 E6        30.17R
ALEXANDRIA INT PTSUNNY   50  46  86 CALM      30.18R
ALEXANDRIA     PTSUNNY   48  45  89 CALM      30.19R

$$

LAZ001-002-171400-
NORTHWEST LOUISIANA

CITY           SKY/WX    TMP DP  RH WIND       PRES   REMARKS
SHREVEPORT     CLOUDY    48  44  86 CALM      30.18R
BARKSDALE AFB  PTSUNNY   47  42  85 CALM      30.19R
DTN SHREVEPORT PTSUNNY   47  43  86 CALM      30.19R

$$

LAZ014-016-171400-
NORTHEAST LOUISIANA

CITY           SKY/WX    TMP DP  RH WIND       PRES   REMARKS
MONROE         MOSUNNY   48  44  86 CALM      30.23R
TALLULAH       MOSUNNY   49  45  86 E5        30.24R

$$




USA.gov is the U.S. government's official web portal to all federal, state and local government web resources and services.